Time,TemperatureF,DewpointF,PressureIn,WindDirection,WindDirectionDegrees,WindSpeedMPH,WindSpeedGustMPH,Humidity,HourlyPrecipIn,Conditions,Clouds,dailyrainin,SoftwareType,DateUTC
2013-02-05 00:01:00,23.8,6.6,29.21,East,90,0.0,0.0,43,-99.99,,,-99.99,WSDL version 342,2013-02-05 05:01:00,
2013-02-05 00:02:00,23.9,6.7,29.21,East,90,0.0,0.0,43,-99.99,,,-99.99,WSDL version 342,2013-02-05 05:02:00,
2013-02-05 00:07:00,23.9,6.7,29.21,East,90,0.0,0.0,43,-99.99,,,-99.99,WSDL version 342,2013-02-05 05:07:00,
2013-02-05 00:12:00,23.9,6.7,29.21,East,90,0.0,0.0,43,-99.99,,,-99.99,WSDL version 342,2013-02-05 05:12:00,
2013-02-05 00:13:00,23.9,6.7,29.21,East,90,0.0,0.0,43,-99.99,,,-99.99,WSDL version 342,2013-02-05 05:13:00,
2013-02-05 00:18:00,24.0,6.8,29.21,East,90,0.0,0.0,43,-99.99,,,-99.99,WSDL version 342,2013-02-05 05:18:00,
2013-02-05 00:23:00,24.1,7.3,29.21,East,90,0.0,0.0,45,-99.99,,,-99.99,WSDL version 342,2013-02-05 05:23:00,
2013-02-05 00:28:00,24.1,8.0,29.21,East,90,0.0,0.0,45,-99.99,,,-99.99,WSDL version 342,2013-02-05 05:28:00,
2013-02-05 00:33:00,24.1,7.3,29.21,East,90,0.0,0.0,44,-99.99,,,-99.99,WSDL version 342,2013-02-05 05:33:00,
2013-02-05 00:38:00,24.1,7.5,29.21,ESE,113,0.0,0.0,45,-99.99,,,-99.99,WSDL version 342,2013-02-05 05:38:00,
2013-02-05 00:43:00,24.1,8.0,29.18,East,98,0.0,0.0,46,-99.99,,,-99.99,WSDL version 342,2013-02-05 05:43:00,
2013-02-05 00:48:00,24.1,8.1,29.18,East,90,0.0,0.0,45,-99.99,,,-99.99,WSDL version 342,2013-02-05 05:48:00,
2013-02-05 00:53:00,24.1,7.8,29.18,East,90,0.0,0.0,45,-99.99,,,-99.99,WSDL version 342,2013-02-05 05:53:00,
2013-02-05 00:58:00,24.1,8.0,29.21,East,90,0.0,0.0,45,-99.99,,,-99.99,WSDL version 342,2013-02-05 05:58:00,
2013-02-05 01:03:00,24.2,7.9,29.21,East,90,0.0,0.0,45,-99.99,,,-99.99,WSDL version 342,2013-02-05 06:03:00,
2013-02-05 01:06:00,24.3,7.9,29.21,East,90,0.0,0.0,45,-99.99,,,-99.99,WSDL version 342,2013-02-05 06:06:00,
2013-02-05 01:11:00,24.3,7.9,29.21,East,90,0.0,0.0,45,-99.99,,,-99.99,WSDL version 342,2013-02-05 06:11:00,
2013-02-05 01:16:00,24.3,7.9,29.21,East,90,0.0,0.0,45,-99.99,,,-99.99,WSDL version 342,2013-02-05 06:16:00,
2013-02-05 01:21:00,24.3,8.3,29.21,East,90,0.0,0.0,46,-99.99,,,-99.99,WSDL version 342,2013-02-05 06:21:00,
2013-02-05 01:26:00,24.3,8.4,29.21,ESE,113,0.0,0.0,45,-99.99,,,-99.99,WSDL version 342,2013-02-05 06:26:00,
2013-02-05 01:31:00,24.3,7.9,29.21,East,93,0.0,0.0,45,-99.99,,,-99.99,WSDL version 342,2013-02-05 06:31:00,
2013-02-05 01:36:00,24.3,8.3,29.21,East,90,0.0,0.0,45,-99.99,,,-99.99,WSDL version 342,2013-02-05 06:36:00,
2013-02-05 01:41:00,24.4,8.4,29.21,East,90,0.0,0.0,46,0.00,,,0.00,WSDL version 342,2013-02-05 06:41:00,
2013-02-05 01:46:00,24.6,8.6,29.21,East,90,0.0,0.0,45,0.00,,,0.00,WSDL version 342,2013-02-05 06:46:00,
2013-02-05 01:51:00,24.7,8.4,29.21,NNE,23,0.0,0.0,46,0.00,,,0.00,WSDL version 342,2013-02-05 06:51:00,
2013-02-05 01:56:00,24.8,8.9,29.21,NNE,23,0.0,0.0,46,0.00,,,0.00,WSDL version 342,2013-02-05 06:56:00,
2013-02-05 02:01:00,24.7,9.0,29.21,NE,45,0.0,0.0,47,0.00,,,0.00,WSDL version 342,2013-02-05 07:01:00,
2013-02-05 02:06:00,24.6,8.9,29.21,ENE,68,0.0,0.0,46,0.00,,,0.00,WSDL version 342,2013-02-05 07:06:00,
2013-02-05 02:11:00,24.6,9.1,29.21,ENE,68,0.0,0.0,47,0.00,,,0.00,WSDL version 342,2013-02-05 07:11:00,
2013-02-05 02:16:00,24.6,8.9,29.21,ENE,68,0.0,0.0,46,-99.99,,,-99.99,WSDL version 342,2013-02-05 07:16:00,
2013-02-05 02:23:00,24.6,8.8,29.21,NE,39,0.0,0.0,47,0.00,,,0.00,WSDL version 342,2013-02-05 07:23:00,
2013-02-05 02:28:00,24.8,9.3,29.21,North,360,0.0,0.0,47,0.00,,,0.00,WSDL version 342,2013-02-05 07:28:00,
2013-02-05 02:33:00,24.9,9.5,29.21,North,360,0.0,0.0,48,0.00,,,0.00,WSDL version 342,2013-02-05 07:33:00,
2013-02-05 02:38:00,24.8,9.7,29.21,North,360,0.0,0.0,48,0.00,,,0.00,WSDL version 342,2013-02-05 07:38:00,
2013-02-05 02:43:00,24.8,9.7,29.21,North,360,0.0,0.0,48,0.00,,,0.00,WSDL version 342,2013-02-05 07:43:00,
2013-02-05 02:48:00,24.8,9.7,29.21,North,360,0.0,0.0,48,0.00,,,0.00,WSDL version 342,2013-02-05 07:48:00,
2013-02-05 02:53:00,24.8,9.7,29.21,NE,35,0.0,0.0,48,0.00,,,0.00,WSDL version 342,2013-02-05 07:53:00,
2013-02-05 02:58:00,24.6,10.0,29.21,ENE,68,0.0,0.0,49,0.00,,,0.00,WSDL version 342,2013-02-05 07:58:00,
2013-02-05 03:04:00,24.6,10.3,29.21,East,90,0.0,0.0,50,-99.99,,,-99.99,WSDL version 342,2013-02-05 08:04:00,
2013-02-05 03:09:00,24.6,10.4,29.21,East,90,0.0,0.0,50,0.00,,,0.00,WSDL version 342,2013-02-05 08:09:00,
2013-02-05 03:14:00,24.5,10.0,29.23,NE,55,0.0,0.0,49,0.00,,,0.00,WSDL version 342,2013-02-05 08:14:00,
2013-02-05 03:19:00,24.4,10.1,29.23,NE,50,0.8,2.0,49,-99.99,,,-99.99,WSDL version 342,2013-02-05 08:19:00,
2013-02-05 03:24:00,24.4,10.0,29.23,NNE,30,0.4,2.0,50,-99.99,,,-99.99,WSDL version 342,2013-02-05 08:24:00,
2013-02-05 03:29:00,24.3,10.4,29.21,NE,35,0.0,2.0,51,0.00,,,0.00,WSDL version 342,2013-02-05 08:29:00,
2013-02-05 03:34:00,24.1,10.8,29.21,East,87,0.3,3.1,54,0.00,,,0.00,WSDL version 342,2013-02-05 08:34:00,
2013-02-05 03:40:00,23.8,11.0,29.21,NNE,15,2.2,3.1,54,0.00,,,0.00,WSDL version 342,2013-02-05 08:40:00,
2013-02-05 03:45:00,23.7,10.8,29.21,North,6,0.0,2.9,53,0.00,,,0.00,WSDL version 342,2013-02-05 08:45:00,
2013-02-05 03:50:00,23.5,10.9,29.21,NNW,347,0.2,2.7,54,-99.99,,,-99.99,WSDL version 342,2013-02-05 08:50:00,
2013-02-05 03:55:00,23.6,11.1,29.23,NE,45,0.0,2.7,55,0.00,,,0.00,WSDL version 342,2013-02-05 08:55:00,
2013-02-05 04:00:00,23.8,11.5,29.23,NNE,32,0.0,2.5,55,0.00,,,0.00,WSDL version 342,2013-02-05 09:00:00,
2013-02-05 04:05:00,23.7,11.4,29.23,NNE,23,1.6,2.5,55,0.00,,,0.00,WSDL version 342,2013-02-05 09:05:00,
2013-02-05 04:10:00,23.5,11.6,29.23,North,360,1.0,2.9,56,0.00,,,0.00,WSDL version 342,2013-02-05 09:10:00,
2013-02-05 04:15:00,23.5,11.6,29.23,NNE,16,0.0,2.9,56,0.00,,,0.00,WSDL version 342,2013-02-05 09:15:00,
2013-02-05 04:20:00,23.5,11.6,29.23,NNE,19,0.6,2.2,56,0.00,,,0.00,WSDL version 342,2013-02-05 09:20:00,
2013-02-05 04:25:00,23.5,12.0,29.23,ENE,61,0.3,2.5,57,0.00,,,0.00,WSDL version 342,2013-02-05 09:25:00,
2013-02-05 04:30:00,23.5,11.7,29.23,NE,45,0.0,2.5,56,0.00,,,0.00,WSDL version 342,2013-02-05 09:30:00,
2013-02-05 04:35:00,23.5,11.8,29.23,NNE,19,0.0,0.0,57,0.00,,,0.00,WSDL version 342,2013-02-05 09:35:00,
2013-02-05 04:40:00,23.5,12.0,29.23,NNE,23,0.0,0.0,58,0.00,,,0.00,WSDL version 342,2013-02-05 09:40:00,
2013-02-05 04:45:00,23.5,12.3,29.26,East,84,0.0,0.9,58,0.00,,,0.00,WSDL version 342,2013-02-05 09:45:00,
2013-02-05 04:50:00,23.6,12.4,29.26,NW,311,1.2,2.0,58,0.00,,,0.00,WSDL version 342,2013-02-05 09:50:00,
2013-02-05 04:55:00,23.7,12.6,29.26,NW,323,0.0,2.0,59,0.00,,,0.00,WSDL version 342,2013-02-05 09:55:00,
2013-02-05 05:00:00,23.5,12.5,29.26,NNW,333,0.0,2.0,59,0.00,,,0.00,WSDL version 342,2013-02-05 10:00:00,
2013-02-05 05:05:00,23.6,12.7,29.26,NW,326,0.5,2.7,59,-99.99,,,-99.99,WSDL version 342,2013-02-05 10:05:00,
2013-02-05 05:10:00,23.7,12.8,29.26,NW,315,0.8,2.7,59,0.00,,,0.00,WSDL version 342,2013-02-05 10:10:00,
2013-02-05 05:17:00,23.7,13.0,29.26,NNW,331,0.6,2.2,60,0.00,,,0.00,WSDL version 342,2013-02-05 10:17:00,
2013-02-05 05:22:00,23.7,13.2,29.26,NNW,347,1.1,2.2,61,0.00,,,0.00,WSDL version 342,2013-02-05 10:22:00,
2013-02-05 05:27:00,23.7,13.7,29.26,NNE,16,0.7,2.9,62,0.00,,,0.00,WSDL version 342,2013-02-05 10:27:00,
2013-02-05 05:32:00,23.7,13.7,29.26,NNW,338,0.0,2.9,62,0.00,,,0.00,WSDL version 342,2013-02-05 10:32:00,
2013-02-05 05:37:00,23.9,14.0,29.26,NNW,338,0.0,0.0,62,0.00,,,0.00,WSDL version 342,2013-02-05 10:37:00,
2013-02-05 05:42:00,23.9,14.0,29.26,NNE,23,0.0,0.0,62,0.00,,,0.00,WSDL version 342,2013-02-05 10:42:00,
2013-02-05 05:47:00,23.9,14.4,29.26,East,87,0.0,0.0,63,0.00,,,0.00,WSDL version 342,2013-02-05 10:47:00,
2013-02-05 05:52:00,24.0,14.3,29.26,ENE,68,0.0,0.0,62,0.00,,,0.00,WSDL version 342,2013-02-05 10:52:00,
2013-02-05 05:57:00,23.9,14.0,29.23,ENE,58,0.3,1.6,62,0.00,,,0.00,WSDL version 342,2013-02-05 10:57:00,
2013-02-05 06:02:00,23.9,14.0,29.23,NE,41,0.0,1.6,62,-99.99,,,-99.99,WSDL version 342,2013-02-05 11:02:00,
2013-02-05 06:07:00,23.9,14.0,29.23,NE,42,0.0,1.1,62,0.00,,,0.00,WSDL version 342,2013-02-05 11:07:00,
2013-02-05 06:12:00,23.9,14.0,29.26,NE,53,0.8,1.3,62,0.00,,,0.00,WSDL version 342,2013-02-05 11:12:00,
2013-02-05 06:17:00,23.9,14.1,29.26,North,360,0.0,1.3,62,0.00,,,0.00,WSDL version 342,2013-02-05 11:17:00,
2013-02-05 06:22:00,23.9,14.2,29.26,North,360,0.0,0.0,63,0.00,,,0.00,WSDL version 342,2013-02-05 11:22:00,
2013-02-05 06:27:00,23.9,14.4,29.26,North,360,0.0,0.0,63,0.00,,,0.00,WSDL version 342,2013-02-05 11:27:00,
2013-02-05 06:32:00,24.1,14.5,29.26,North,360,0.0,0.0,63,-99.99,,,-99.99,WSDL version 342,2013-02-05 11:32:00,
2013-02-05 06:37:00,24.0,14.4,29.26,North,353,1.0,2.7,63,0.00,,,0.00,WSDL version 342,2013-02-05 11:37:00,
2013-02-05 06:42:00,24.1,14.8,29.29,North,9,0.0,2.7,64,0.00,,,0.00,WSDL version 342,2013-02-05 11:42:00,
2013-02-05 06:47:00,24.1,15.0,29.29,NNE,23,1.1,2.0,65,-99.99,,,-99.99,WSDL version 342,2013-02-05 11:47:00,
2013-02-05 06:52:00,24.1,15.1,29.29,North,360,0.0,2.0,65,0.00,,,0.00,WSDL version 342,2013-02-05 11:52:00,
2013-02-05 06:57:00,24.1,15.1,29.32,North,353,0.1,2.0,64,0.00,,,0.00,WSDL version 342,2013-02-05 11:57:00,
2013-02-05 07:02:00,24.1,15.0,29.32,North,351,0.0,2.0,65,0.00,,,0.00,WSDL version 342,2013-02-05 12:02:00,
2013-02-05 07:07:00,24.1,15.1,29.32,NE,56,1.5,3.4,65,0.00,,,0.00,WSDL version 342,2013-02-05 12:07:00,
2013-02-05 07:12:00,24.1,15.2,29.32,NNE,23,0.1,3.4,65,0.00,,,0.00,WSDL version 342,2013-02-05 12:12:00,
2013-02-05 07:17:00,24.1,15.5,29.32,North,360,0.2,2.0,66,0.00,,,0.00,WSDL version 342,2013-02-05 12:17:00,
2013-02-05 07:22:00,24.3,15.6,29.32,North,360,0.2,2.2,66,0.00,,,0.00,WSDL version 342,2013-02-05 12:22:00,
2013-02-05 07:27:00,24.3,15.6,29.32,NE,45,0.0,2.2,66,0.00,,,0.00,WSDL version 342,2013-02-05 12:27:00,
2013-02-05 07:32:00,24.4,15.7,29.32,ENE,58,0.0,2.0,66,0.00,,,0.00,WSDL version 342,2013-02-05 12:32:00,
2013-02-05 07:37:00,24.4,15.9,29.32,North,360,0.5,2.0,67,0.00,,,0.00,WSDL version 342,2013-02-05 12:37:00,
2013-02-05 07:42:00,24.4,16.1,29.29,NNE,19,1.0,2.2,67,0.00,,,0.00,WSDL version 342,2013-02-05 12:42:00,
2013-02-05 07:47:00,24.4,16.1,29.29,North,4,1.4,2.5,67,0.00,,,0.00,WSDL version 342,2013-02-05 12:47:00,
2013-02-05 07:52:00,24.4,16.1,29.29,NNE,31,0.0,2.5,67,0.00,,,0.00,WSDL version 342,2013-02-05 12:52:00,
2013-02-05 07:57:00,24.6,16.3,29.32,NNE,23,0.0,2.5,67,0.00,,,0.00,WSDL version 342,2013-02-05 12:57:00,
2013-02-05 08:02:00,24.7,16.6,29.32,NE,34,0.0,0.0,67,-99.99,,,-99.99,WSDL version 342,2013-02-05 13:02:00,
2013-02-05 08:07:00,24.8,16.4,29.32,North,9,1.1,2.2,67,0.00,,,0.00,WSDL version 342,2013-02-05 13:07:00,
2013-02-05 08:12:00,24.8,16.4,29.32,NW,326,0.7,2.2,67,0.00,,,0.00,WSDL version 342,2013-02-05 13:12:00,
2013-02-05 08:17:00,25.0,16.6,29.32,NW,315,0.6,2.2,67,0.00,,,0.00,WSDL version 342,2013-02-05 13:17:00,
2013-02-05 08:22:00,25.1,16.7,29.32,NNW,334,0.3,2.2,67,0.00,,,0.00,WSDL version 342,2013-02-05 13:22:00,
2013-02-05 08:27:00,25.2,16.8,29.32,NNW,338,0.0,1.3,67,0.00,,,0.00,WSDL version 342,2013-02-05 13:27:00,
2013-02-05 08:32:00,25.3,17.0,29.32,NNW,341,0.0,0.0,67,0.00,,,0.00,WSDL version 342,2013-02-05 13:32:00,
2013-02-05 08:37:00,25.3,16.7,29.32,NW,315,0.0,0.0,66,0.00,,,0.00,WSDL version 342,2013-02-05 13:37:00,
2013-02-05 08:42:00,25.5,16.8,29.32,NNW,338,0.0,0.0,66,0.00,,,0.00,WSDL version 342,2013-02-05 13:42:00,
2013-02-05 08:47:00,25.6,16.9,29.32,NE,41,0.0,0.0,66,0.00,,,0.00,WSDL version 342,2013-02-05 13:47:00,
2013-02-05 08:52:00,25.6,16.9,29.32,NNE,19,1.3,3.1,66,-99.99,,,-99.99,WSDL version 342,2013-02-05 13:52:00,
2013-02-05 08:57:00,25.8,17.3,29.32,NNE,19,0.0,3.1,67,0.00,,,0.00,WSDL version 342,2013-02-05 13:57:00,
2013-02-05 09:02:00,26.2,17.8,29.32,NNE,29,0.9,2.7,67,0.00,,,0.00,WSDL version 342,2013-02-05 14:02:00,
2013-02-05 09:07:00,26.5,18.1,29.32,NNE,29,1.6,2.7,67,0.00,,,0.00,WSDL version 342,2013-02-05 14:07:00,
2013-02-05 09:12:00,26.6,18.0,29.32,NNW,347,0.3,2.9,66,0.00,,,0.00,WSDL version 342,2013-02-05 14:12:00,
2013-02-05 09:17:00,26.9,18.1,29.32,NNE,26,0.0,2.9,66,0.00,,,0.00,WSDL version 342,2013-02-05 14:17:00,
2013-02-05 09:22:00,27.0,18.1,29.32,NE,39,1.2,2.9,65,0.00,,,0.00,WSDL version 342,2013-02-05 14:22:00,
2013-02-05 09:27:00,27.0,18.0,29.29,NNW,330,1.2,2.9,65,0.00,,,0.00,WSDL version 342,2013-02-05 14:27:00,
2013-02-05 09:32:00,27.3,18.2,29.29,North,8,0.6,2.7,65,0.00,,,0.00,WSDL version 342,2013-02-05 14:32:00,
2013-02-05 09:37:00,27.5,18.2,29.29,NW,307,1.4,2.5,64,0.00,,,0.00,WSDL version 342,2013-02-05 14:37:00,
2013-02-05 09:42:00,27.8,18.4,29.32,NW,315,0.3,2.5,64,0.00,,,0.00,WSDL version 342,2013-02-05 14:42:00,
2013-02-05 09:47:00,28.0,18.5,29.32,NW,323,0.3,2.5,63,0.00,,,0.00,WSDL version 342,2013-02-05 14:47:00,
2013-02-05 09:52:00,28.2,18.5,29.32,North,9,0.0,2.5,63,0.00,,,0.00,WSDL version 342,2013-02-05 14:52:00,
2013-02-05 09:57:00,28.9,18.8,29.32,North,10,0.0,2.0,62,0.00,,,0.00,WSDL version 342,2013-02-05 14:57:00,
2013-02-05 10:02:00,29.5,19.2,29.32,NNW,338,0.0,0.0,61,0.00,,,0.00,WSDL version 342,2013-02-05 15:02:00,
2013-02-05 10:07:00,30.2,19.7,29.32,NW,315,0.0,0.0,61,0.00,,,0.00,WSDL version 342,2013-02-05 15:07:00,
2013-02-05 10:12:00,30.1,18.9,29.32,NE,34,0.0,0.0,58,0.00,,,0.00,WSDL version 342,2013-02-05 15:12:00,
2013-02-05 10:17:00,30.0,18.3,29.32,NW,311,0.0,0.0,58,0.00,,,0.00,WSDL version 342,2013-02-05 15:17:00,
2013-02-05 10:22:00,29.9,18.0,29.32,NE,39,0.0,0.0,56,-99.99,,,-99.99,WSDL version 342,2013-02-05 15:22:00,
2013-02-05 10:27:00,29.8,17.7,29.32,NW,305,0.0,0.0,57,0.00,,,0.00,WSDL version 342,2013-02-05 15:27:00,
2013-02-05 10:32:00,29.9,17.7,29.32,NNE,20,0.0,0.0,56,0.00,,,0.00,WSDL version 342,2013-02-05 15:32:00,
2013-02-05 10:37:00,30.4,18.2,29.32,WNW,293,0.0,0.0,56,0.00,,,0.00,WSDL version 342,2013-02-05 15:37:00,
2013-02-05 10:42:00,31.2,18.9,29.32,NE,35,0.0,0.0,56,0.00,,,0.00,WSDL version 342,2013-02-05 15:42:00,
2013-02-05 10:47:00,31.6,19.1,29.32,NNE,23,0.0,0.0,54,0.00,,,0.00,WSDL version 342,2013-02-05 15:47:00,
2013-02-05 10:52:00,31.3,17.8,29.32,NNW,328,0.0,0.0,53,0.00,,,0.00,WSDL version 342,2013-02-05 15:52:00,
2013-02-05 10:57:00,31.5,18.0,29.29,North,3,0.0,0.0,53,0.00,,,0.00,WSDL version 342,2013-02-05 15:57:00,
2013-02-05 11:02:00,31.6,17.8,29.29,North,354,0.0,0.0,52,0.00,,,0.00,WSDL version 342,2013-02-05 16:02:00,
2013-02-05 11:07:00,31.6,17.8,29.29,NW,323,0.8,3.8,52,0.00,,,0.00,WSDL version 342,2013-02-05 16:07:00,
2013-02-05 11:12:00,31.6,17.5,29.32,ENE,68,1.1,3.8,51,0.00,,,0.00,WSDL version 342,2013-02-05 16:12:00,
2013-02-05 11:18:00,31.6,17.3,29.32,North,354,2.7,3.8,51,0.00,,,0.00,WSDL version 342,2013-02-05 16:18:00,
2013-02-05 11:23:00,31.3,16.7,29.32,North,353,1.1,3.8,50,0.00,,,0.00,WSDL version 342,2013-02-05 16:23:00,
2013-02-05 11:28:00,31.5,16.8,29.32,North,10,1.8,4.3,50,0.00,,,0.00,WSDL version 342,2013-02-05 16:28:00,
2013-02-05 11:33:00,31.2,16.6,29.32,East,93,1.6,4.3,50,-99.99,,,-99.99,WSDL version 342,2013-02-05 16:33:00,
2013-02-05 11:38:00,31.2,17.0,29.32,WNW,293,0.0,3.4,51,0.00,,,0.00,WSDL version 342,2013-02-05 16:38:00,
2013-02-05 11:43:00,31.4,17.2,29.32,East,79,1.0,2.7,51,0.00,,,0.00,WSDL version 342,2013-02-05 16:43:00,
2013-02-05 11:48:00,31.1,16.9,29.32,NNE,23,1.2,2.7,51,0.00,,,0.00,WSDL version 342,2013-02-05 16:48:00,
2013-02-05 11:53:00,31.2,16.9,29.32,North,6,1.4,3.4,51,0.00,,,0.00,WSDL version 342,2013-02-05 16:53:00,
2013-02-05 11:58:00,31.3,17.0,29.32,NW,319,0.3,3.4,51,0.00,,,0.00,WSDL version 342,2013-02-05 16:58:00,
2013-02-05 12:03:00,31.4,17.2,29.32,North,354,1.3,2.5,51,0.00,,,0.00,WSDL version 342,2013-02-05 17:03:00,
2013-02-05 12:08:00,31.3,17.0,29.32,East,99,0.0,2.5,51,0.00,,,0.00,WSDL version 342,2013-02-05 17:08:00,
2013-02-05 12:14:00,31.3,17.0,29.32,East,98,1.0,2.0,51,0.00,,,0.00,WSDL version 342,2013-02-05 17:14:00,
2013-02-05 12:19:00,31.1,16.9,29.32,NE,48,0.4,2.0,51,0.00,,,0.00,WSDL version 342,2013-02-05 17:19:00,
2013-02-05 12:24:00,30.9,16.7,29.32,ENE,75,0.0,2.5,51,0.00,,,0.00,WSDL version 342,2013-02-05 17:24:00,
2013-02-05 12:29:00,31.0,16.8,29.32,ENE,64,1.3,2.7,51,0.00,,,0.00,WSDL version 342,2013-02-05 17:29:00,
2013-02-05 12:35:00,30.9,16.7,29.32,ENE,71,0.5,2.7,51,0.00,,,0.00,WSDL version 342,2013-02-05 17:35:00,
2013-02-05 12:40:00,30.9,16.6,29.29,ENE,60,1.9,3.4,51,0.00,,,0.00,WSDL version 342,2013-02-05 17:40:00,
2013-02-05 12:45:00,30.7,16.4,29.29,East,80,2.0,3.4,51,0.00,,,0.00,WSDL version 342,2013-02-05 17:45:00,
2013-02-05 12:50:00,30.3,16.3,29.29,NNE,23,2.9,3.4,52,0.00,,,0.00,WSDL version 342,2013-02-05 17:50:00,
2013-02-05 12:55:00,30.4,16.4,29.29,NE,41,0.4,3.4,52,0.00,,,0.00,WSDL version 342,2013-02-05 17:55:00,
2013-02-05 13:00:00,30.4,16.6,29.29,North,8,1.8,3.4,52,0.00,,,0.00,WSDL version 342,2013-02-05 18:00:00,
2013-02-05 13:05:00,30.4,16.6,29.29,ENE,75,1.6,3.4,52,0.00,,,0.00,WSDL version 342,2013-02-05 18:05:00,
2013-02-05 13:10:00,30.3,16.7,29.29,NE,45,2.2,2.9,53,0.00,,,0.00,WSDL version 342,2013-02-05 18:10:00,
2013-02-05 13:16:00,30.2,16.8,29.26,NE,48,1.7,3.4,53,0.00,,,0.00,WSDL version 342,2013-02-05 18:16:00,
2013-02-05 13:21:00,30.2,16.8,29.26,ENE,62,2.6,3.6,53,0.00,,,0.00,WSDL version 342,2013-02-05 18:21:00,
2013-02-05 13:26:00,30.2,16.8,29.29,NE,35,1.4,3.6,53,0.00,,,0.00,WSDL version 342,2013-02-05 18:26:00,
2013-02-05 13:31:00,30.4,17.0,29.29,NE,48,1.6,3.4,53,0.00,,,0.00,WSDL version 342,2013-02-05 18:31:00,
2013-02-05 13:36:00,30.4,17.0,29.29,ENE,74,1.7,3.4,53,0.00,,,0.00,WSDL version 342,2013-02-05 18:36:00,
2013-02-05 13:41:00,30.3,16.9,29.29,ESE,113,2.0,3.4,53,0.00,,,0.00,WSDL version 342,2013-02-05 18:41:00,
2013-02-05 13:46:00,30.2,16.7,29.26,NNE,23,1.6,3.4,52,0.00,,,0.00,WSDL version 342,2013-02-05 18:46:00,
2013-02-05 13:51:00,30.2,16.8,29.26,NE,51,1.4,3.6,53,0.00,,,0.00,WSDL version 342,2013-02-05 18:51:00,
2013-02-05 13:58:00,29.9,16.6,29.26,ENE,64,2.7,3.8,53,0.00,,,0.00,WSDL version 342,2013-02-05 18:58:00,
2013-02-05 14:03:00,29.8,16.5,29.26,NNE,25,1.1,3.8,53,0.00,,,0.00,WSDL version 342,2013-02-05 19:03:00,
2013-02-05 14:08:00,29.8,16.5,29.26,North,3,1.4,3.4,53,0.00,,,0.00,WSDL version 342,2013-02-05 19:08:00,
2013-02-05 14:13:00,30.0,16.6,29.26,NE,37,0.4,3.1,53,-99.99,,,-99.99,WSDL version 342,2013-02-05 19:13:00,
2013-02-05 14:18:00,30.0,16.9,29.26,ENE,58,1.0,2.2,54,0.00,,,0.00,WSDL version 342,2013-02-05 19:18:00,
2013-02-05 14:23:00,29.8,16.8,29.26,East,80,2.5,3.8,54,0.00,,,0.00,WSDL version 342,2013-02-05 19:23:00,
2013-02-05 14:28:00,29.8,16.8,29.26,ENE,58,0.0,3.8,54,0.00,,,0.00,WSDL version 342,2013-02-05 19:28:00,
2013-02-05 14:33:00,29.7,16.7,29.26,ENE,77,0.0,2.9,54,0.00,,,0.00,WSDL version 342,2013-02-05 19:33:00,
2013-02-05 14:38:00,29.7,16.7,29.26,North,11,0.6,2.9,54,-99.99,,,-99.99,WSDL version 342,2013-02-05 19:38:00,
2013-02-05 14:43:00,29.7,16.7,29.26,NE,45,0.0,2.9,54,0.00,,,0.00,WSDL version 342,2013-02-05 19:43:00,
2013-02-05 14:48:00,29.8,16.8,29.26,NNE,23,0.0,2.7,54,0.00,,,0.00,WSDL version 342,2013-02-05 19:48:00,
2013-02-05 14:53:00,29.8,16.8,29.26,NNE,25,0.0,0.0,54,0.00,,,0.00,WSDL version 342,2013-02-05 19:53:00,
2013-02-05 14:58:00,29.8,16.8,29.26,North,353,0.0,2.0,54,0.00,,,0.00,WSDL version 342,2013-02-05 19:58:00,
2013-02-05 15:03:00,29.9,17.3,29.26,North,354,1.0,2.0,55,-99.99,,,-99.99,WSDL version 342,2013-02-05 20:03:00,
2013-02-05 15:08:00,30.0,17.4,29.26,NW,315,0.0,2.0,55,0.00,,,0.00,WSDL version 342,2013-02-05 20:08:00,
2013-02-05 15:13:00,30.2,17.5,29.26,NE,51,0.0,1.6,55,0.00,,,0.00,WSDL version 342,2013-02-05 20:13:00,
2013-02-05 15:18:00,30.2,17.6,29.26,NE,56,0.0,0.0,55,0.00,,,0.00,WSDL version 342,2013-02-05 20:18:00,
2013-02-05 15:23:00,30.2,17.3,29.26,NNW,338,0.0,2.7,54,0.00,,,0.00,WSDL version 342,2013-02-05 20:23:00,
2013-02-05 15:28:00,30.1,17.2,29.26,NE,51,0.0,2.7,55,0.00,,,0.00,WSDL version 342,2013-02-05 20:28:00,
2013-02-05 15:33:00,30.2,17.6,29.26,NNE,17,0.0,0.0,55,0.00,,,0.00,WSDL version 342,2013-02-05 20:33:00,
2013-02-05 15:38:00,30.2,17.5,29.26,NE,53,1.7,2.7,55,0.00,,,0.00,WSDL version 342,2013-02-05 20:38:00,
2013-02-05 15:43:00,30.1,17.4,29.23,ENE,60,0.0,2.7,55,-99.99,,,-99.99,WSDL version 342,2013-02-05 20:43:00,
2013-02-05 15:48:00,30.1,17.5,29.23,East,80,0.0,2.0,55,0.00,,,0.00,WSDL version 342,2013-02-05 20:48:00,
2013-02-05 15:53:00,30.1,17.4,29.23,North,356,0.6,3.1,55,0.00,,,0.00,WSDL version 342,2013-02-05 20:53:00,
2013-02-05 15:58:00,30.0,17.4,29.26,NE,39,0.0,3.1,55,0.00,,,0.00,WSDL version 342,2013-02-05 20:58:00,
2013-02-05 16:03:00,29.9,17.3,29.26,ENE,68,1.9,2.9,55,0.00,,,0.00,WSDL version 342,2013-02-05 21:03:00,
2013-02-05 16:08:00,29.8,17.4,29.26,NE,48,1.3,2.9,56,0.00,,,0.00,WSDL version 342,2013-02-05 21:08:00,
2013-02-05 16:13:00,29.8,17.5,29.26,ENE,63,0.3,2.9,56,0.00,,,0.00,WSDL version 342,2013-02-05 21:13:00,
2013-02-05 16:18:00,29.7,17.4,29.26,NNE,19,0.0,2.5,56,0.00,,,0.00,WSDL version 342,2013-02-05 21:18:00,
2013-02-05 16:23:00,29.7,17.4,29.26,NNE,25,0.4,2.2,56,0.00,,,0.00,WSDL version 342,2013-02-05 21:23:00,
2013-02-05 16:28:00,29.7,17.4,29.26,ENE,71,0.0,1.6,56,0.00,,,0.00,WSDL version 342,2013-02-05 21:28:00,
2013-02-05 16:33:00,29.6,17.6,29.26,NE,55,0.0,1.3,57,0.00,,,0.00,WSDL version 342,2013-02-05 21:33:00,
2013-02-05 16:38:00,29.5,17.6,29.26,NE,45,0.0,0.0,57,-99.99,,,-99.99,WSDL version 342,2013-02-05 21:38:00,
2013-02-05 16:43:00,29.5,17.6,29.26,NE,48,0.0,0.0,57,0.00,,,0.00,WSDL version 342,2013-02-05 21:43:00,
2013-02-05 16:48:00,29.5,17.6,29.26,ENE,68,0.0,0.0,57,0.00,,,0.00,WSDL version 342,2013-02-05 21:48:00,
2013-02-05 16:53:00,29.5,17.6,29.26,ENE,63,0.0,0.0,57,0.00,,,0.00,WSDL version 342,2013-02-05 21:53:00,
2013-02-05 16:58:00,29.5,18.0,29.26,NNE,28,0.0,0.0,58,0.00,,,0.00,WSDL version 342,2013-02-05 21:58:00,
2013-02-05 17:03:00,29.3,17.8,29.26,NE,41,0.0,0.0,58,-99.99,,,-99.99,WSDL version 342,2013-02-05 22:03:00,
2013-02-05 17:08:00,29.3,17.8,29.26,NE,42,0.0,2.9,58,0.00,,,0.00,WSDL version 342,2013-02-05 22:08:00,
2013-02-05 17:13:00,29.1,17.8,29.26,NE,42,1.9,2.9,59,0.00,,,0.00,WSDL version 342,2013-02-05 22:13:00,
2013-02-05 17:18:00,28.9,17.9,29.26,ENE,77,1.0,2.9,60,0.00,,,0.00,WSDL version 342,2013-02-05 22:18:00,
2013-02-05 17:23:00,28.9,18.2,29.26,ENE,60,0.8,2.9,60,0.00,,,0.00,WSDL version 342,2013-02-05 22:23:00,
2013-02-05 17:28:00,28.9,18.2,29.26,ENE,68,1.5,2.9,60,-99.99,,,-99.99,WSDL version 342,2013-02-05 22:28:00,
2013-02-05 17:33:00,28.8,18.3,29.26,NE,56,1.9,2.7,61,0.00,,,0.00,WSDL version 342,2013-02-05 22:33:00,
2013-02-05 17:38:00,28.8,18.3,29.26,NE,39,0.6,2.7,61,-99.99,,,-99.99,WSDL version 342,2013-02-05 22:38:00,
2013-02-05 17:43:00,28.9,19.2,29.26,NE,51,0.8,1.6,63,0.00,,,0.00,WSDL version 342,2013-02-05 22:43:00,
2013-02-05 17:48:00,28.9,19.0,29.26,NNE,23,0.0,1.6,63,0.00,,,0.00,WSDL version 342,2013-02-05 22:48:00,
2013-02-05 17:53:00,29.1,19.9,29.26,ENE,62,0.0,1.6,65,0.00,,,0.00,WSDL version 342,2013-02-05 22:53:00,
2013-02-05 17:58:00,29.4,20.5,29.23,NNW,338,0.0,0.0,66,0.00,,,0.00,WSDL version 342,2013-02-05 22:58:00,
2013-02-05 18:03:00,29.5,20.4,29.23,ENE,72,0.0,1.1,65,0.00,,,0.00,WSDL version 342,2013-02-05 23:03:00,
2013-02-05 18:09:00,29.2,20.0,29.23,East,86,0.0,1.1,65,0.00,,,0.00,WSDL version 342,2013-02-05 23:09:00,
2013-02-05 18:14:00,29.2,20.4,29.26,NE,45,0.0,0.0,66,-99.99,,,-99.99,WSDL version 342,2013-02-05 23:14:00,
2013-02-05 18:19:00,29.4,20.8,29.26,NE,45,0.0,0.0,67,0.00,,,0.00,WSDL version 342,2013-02-05 23:19:00,
2013-02-05 18:24:00,29.3,20.7,29.26,East,84,0.0,0.0,67,-99.99,,,-99.99,WSDL version 342,2013-02-05 23:24:00,
2013-02-05 18:29:00,29.1,20.5,29.26,East,90,0.3,2.7,67,0.00,,,0.00,WSDL version 342,2013-02-05 23:29:00,
2013-02-05 18:34:00,29.1,20.6,-100.00,NE,45,0.0,2.7,67,-99.99,,,-99.99,WSDL version 342,2013-02-05 23:34:00,
2013-02-05 18:40:00,30.6,23.6,29.26,NNE,13,0.0,0.9,74,0.00,,,0.00,WSDL version 342,2013-02-05 23:40:00,
2013-02-05 18:45:00,30.6,23.4,29.26,ENE,60,0.0,1.6,70,-99.99,,,-99.99,WSDL version 342,2013-02-05 23:45:00,
2013-02-05 18:50:00,29.9,21.9,29.26,East,86,0.2,1.6,68,0.00,,,0.00,WSDL version 342,2013-02-05 23:50:00,
2013-02-05 18:56:00,29.5,21.5,29.23,East,90,0.0,1.1,69,0.00,,,0.00,WSDL version 342,2013-02-05 23:56:00,
2013-02-05 19:01:00,29.4,21.5,29.23,East,90,0.0,0.0,69,-99.99,,,-99.99,WSDL version 342,2013-02-06 00:01:00,
2013-02-05 19:06:00,29.2,21.3,29.23,ENE,75,0.0,0.0,69,0.00,,,0.00,WSDL version 342,2013-02-06 00:06:00,
2013-02-05 19:13:00,28.9,21.0,29.21,NE,45,1.2,1.3,69,0.00,,,0.00,WSDL version 342,2013-02-06 00:13:00,
2013-02-05 19:18:00,28.8,21.1,29.21,NE,45,0.0,1.3,70,0.00,,,0.00,WSDL version 342,2013-02-06 00:18:00,
2013-02-05 19:23:00,29.4,22.6,29.21,NNW,338,0.0,0.9,73,0.00,,,0.00,WSDL version 342,2013-02-06 00:23:00,
2013-02-05 19:28:00,29.8,23.4,29.21,NNW,338,0.0,0.9,75,0.00,,,0.00,WSDL version 342,2013-02-06 00:28:00,
2013-02-05 19:33:00,30.5,24.4,29.21,NNW,338,0.0,0.0,75,-99.99,,,-99.99,WSDL version 342,2013-02-06 00:33:00,
2013-02-05 19:40:00,30.5,24.5,29.21,NNW,338,0.0,0.0,76,0.00,,,0.00,WSDL version 342,2013-02-06 00:40:00,
2013-02-05 19:45:00,31.2,25.8,29.21,NNW,338,0.0,0.0,78,0.00,,,0.00,WSDL version 342,2013-02-06 00:45:00,
2013-02-05 19:50:00,30.4,24.5,29.21,NW,315,0.0,0.0,75,0.00,,,0.00,WSDL version 342,2013-02-06 00:50:00,
2013-02-05 19:55:00,29.8,23.3,29.21,NW,315,0.0,0.0,73,0.00,,,0.00,WSDL version 342,2013-02-06 00:55:00,
2013-02-05 20:00:00,30.0,23.6,29.21,NW,315,0.0,0.0,76,0.00,,,0.00,WSDL version 342,2013-02-06 01:00:00,
2013-02-05 20:05:00,30.0,24.0,29.21,North,8,0.0,0.0,75,0.00,,,0.00,WSDL version 342,2013-02-06 01:05:00,
2013-02-05 20:10:00,29.6,23.4,29.21,NNE,23,0.2,2.0,75,0.00,,,0.00,WSDL version 342,2013-02-06 01:10:00,
2013-02-05 20:15:00,29.6,23.6,29.21,ENE,61,0.0,2.0,76,-99.99,,,-99.99,WSDL version 342,2013-02-06 01:15:00,
2013-02-05 20:21:00,29.3,23.4,29.21,NW,306,0.5,2.0,75,0.00,,,0.00,WSDL version 342,2013-02-06 01:21:00,
2013-02-05 20:27:00,29.1,23.2,29.18,North,352,0.0,1.3,76,0.00,,,0.00,WSDL version 342,2013-02-06 01:27:00,
2013-02-05 20:32:00,29.3,23.5,29.18,NNW,338,0.0,0.0,77,0.00,,,0.00,WSDL version 342,2013-02-06 01:32:00,
2013-02-05 20:37:00,29.8,24.6,29.18,NNW,338,0.0,0.0,78,0.00,,,0.00,WSDL version 342,2013-02-06 01:37:00,
2013-02-05 20:42:00,29.5,24.1,29.21,NNW,338,0.0,0.0,77,0.00,,,0.00,WSDL version 342,2013-02-06 01:42:00,
2013-02-05 20:47:00,29.2,23.5,29.21,NNE,23,0.0,0.0,76,0.00,,,0.00,WSDL version 342,2013-02-06 01:47:00,
2013-02-05 20:52:00,29.0,23.2,29.21,NNE,23,0.0,0.0,77,-99.99,,,-99.99,WSDL version 342,2013-02-06 01:52:00,
2013-02-05 20:57:00,30.1,25.2,29.21,NE,45,0.0,1.3,80,0.00,,,0.00,WSDL version 342,2013-02-06 01:57:00,
2013-02-05 21:03:00,29.3,24.0,29.21,NE,45,0.0,2.0,77,0.00,,,0.00,WSDL version 342,2013-02-06 02:03:00,
2013-02-05 21:08:00,29.0,23.6,29.21,NE,45,0.0,2.0,78,0.00,,,0.00,WSDL version 342,2013-02-06 02:08:00,
2013-02-05 21:13:00,29.5,24.3,29.21,NNE,14,0.0,0.0,79,0.00,,,0.00,WSDL version 342,2013-02-06 02:13:00,
2013-02-05 21:18:00,30.2,25.6,29.21,North,360,0.0,0.0,81,0.00,,,0.00,WSDL version 342,2013-02-06 02:18:00,
2013-02-05 21:23:00,29.9,25.1,29.21,North,360,0.0,0.0,80,0.00,,,0.00,WSDL version 342,2013-02-06 02:23:00,
2013-02-05 21:28:00,29.6,24.5,29.18,ENE,68,0.0,0.0,78,0.00,,,0.00,WSDL version 342,2013-02-06 02:28:00,
2013-02-05 21:33:00,29.3,24.0,29.18,NNW,334,0.0,0.0,78,0.00,,,0.00,WSDL version 342,2013-02-06 02:33:00,
2013-02-05 21:38:00,29.2,23.9,29.18,NNE,23,0.0,0.0,78,0.00,,,0.00,WSDL version 342,2013-02-06 02:38:00,
2013-02-05 21:43:00,29.2,24.0,29.18,WSW,257,0.4,1.6,78,0.00,,,0.00,WSDL version 342,2013-02-06 02:43:00,
2013-02-05 21:49:00,29.5,24.6,29.18,West,270,0.0,1.6,80,0.00,,,0.00,WSDL version 342,2013-02-06 02:49:00,
2013-02-05 21:54:00,29.5,24.7,29.18,West,270,0.0,0.0,80,0.00,,,0.00,WSDL version 342,2013-02-06 02:54:00,
2013-02-05 21:59:00,29.2,24.1,29.18,WNW,289,0.0,0.0,79,0.00,,,0.00,WSDL version 342,2013-02-06 02:59:00,
2013-02-05 22:04:00,29.2,24.1,29.18,WNW,293,0.0,0.0,79,0.00,,,0.00,WSDL version 342,2013-02-06 03:04:00,
2013-02-05 22:09:00,29.1,24.0,29.18,WNW,293,0.0,0.0,79,0.00,,,0.00,WSDL version 342,2013-02-06 03:09:00,
2013-02-05 22:14:00,28.9,23.9,29.21,WNW,293,0.0,0.0,79,0.00,,,0.00,WSDL version 342,2013-02-06 03:14:00,
2013-02-05 22:19:00,28.9,23.8,29.21,WNW,293,0.0,0.0,79,0.00,,,0.00,WSDL version 342,2013-02-06 03:19:00,
2013-02-05 22:24:00,28.8,23.7,29.21,WNW,293,0.0,0.0,79,-99.99,,,-99.99,WSDL version 342,2013-02-06 03:24:00,
2013-02-05 22:29:00,28.8,23.7,29.21,WNW,293,0.0,0.0,79,0.00,,,0.00,WSDL version 342,2013-02-06 03:29:00,
2013-02-05 22:35:00,28.8,23.7,29.21,WNW,293,0.0,0.0,79,0.00,,,0.00,WSDL version 342,2013-02-06 03:35:00,
2013-02-05 22:40:00,28.9,24.2,29.21,WNW,293,0.0,0.0,80,0.00,,,0.00,WSDL version 342,2013-02-06 03:40:00,
2013-02-05 22:46:00,28.8,23.7,29.21,SW,221,0.0,0.0,79,0.00,,,0.00,WSDL version 342,2013-02-06 03:46:00,
2013-02-05 22:51:00,28.8,23.7,29.21,SSW,203,0.0,0.0,79,0.00,,,0.00,WSDL version 342,2013-02-06 03:51:00,
2013-02-05 22:57:00,28.7,23.7,29.21,WSW,248,2.3,2.9,79,0.00,,,0.00,WSDL version 342,2013-02-06 03:57:00,
2013-02-05 23:02:00,28.7,23.8,29.21,West,270,0.0,2.9,80,0.00,,,0.00,WSDL version 342,2013-02-06 04:02:00,
2013-02-05 23:07:00,28.6,23.9,29.21,West,270,0.2,2.0,80,0.00,,,0.00,WSDL version 342,2013-02-06 04:07:00,
2013-02-05 23:12:00,28.8,24.0,29.21,WNW,293,1.1,2.0,80,-99.99,,,-99.99,WSDL version 342,2013-02-06 04:12:00,
2013-02-05 23:17:00,28.8,24.0,29.21,WNW,293,0.0,2.0,80,0.00,,,0.00,WSDL version 342,2013-02-06 04:17:00,
2013-02-05 23:22:00,28.7,23.9,29.21,WNW,293,1.4,2.0,80,0.00,,,0.00,WSDL version 342,2013-02-06 04:22:00,
2013-02-05 23:27:00,28.6,23.8,29.21,WNW,293,1.9,2.5,80,0.00,,,0.00,WSDL version 342,2013-02-06 04:27:00,
2013-02-05 23:32:00,28.6,23.8,29.21,WNW,293,2.5,2.9,80,0.00,,,0.00,WSDL version 342,2013-02-06 04:32:00,
2013-02-05 23:37:00,28.6,23.8,29.21,WNW,293,2.2,2.9,80,0.00,,,0.00,WSDL version 342,2013-02-06 04:37:00,
2013-02-05 23:43:00,28.6,24.1,29.23,West,270,2.0,2.7,81,0.00,,,0.00,WSDL version 342,2013-02-06 04:43:00,
2013-02-05 23:48:00,28.6,24.2,29.23,West,270,2.7,3.1,82,0.00,,,0.00,WSDL version 342,2013-02-06 04:48:00,
2013-02-05 23:53:00,28.6,24.4,29.23,WNW,293,1.2,3.1,82,-99.99,,,-99.99,WSDL version 342,2013-02-06 04:53:00,
2013-02-05 23:58:00,28.6,24.4,29.23,WNW,289,0.9,2.5,82,-99.99,,,-99.99,WSDL version 342,2013-02-06 04:58:00,